Location: Unspecified
(41.1637°N, 24.2901°E)
Time: 11:23:36
(UTC+01:00)

ISS - Pass Details

Date: 21 January 2019
Orbit: 404 x 407 km, 51.6° (Epoch: 16 January)

Event Time Altitude Azimuth Distance (km) Brightness Sun altitude
Rises 18:41:01 0° 230° (SW) 2,313 0.8 -25.3°
Reaches altitude 10° 18:43:05 10° 229° (SW) 1,457 -0.3 -25.7°
Enters shadow 18:44:20 21° 228° (SW) 960 -1.4 -25.9°
